This is the latest recevied weather packets stored in our database for station/object K4ZZR. If no packets are shown the sender has not sent any weather packets the latest 10 day(s).
| Time | Temp. | Humidity | Pressure | Rain* | Wind** | Luminosity | Snow |
|---|---|---|---|---|---|---|---|
| 1778024690 | 25° C | 84% | 1014.6 hPa | 0 mm | - | 9 W/m² | - |
| 1778024387 | 25° C | 85% | 1014.7 hPa | 0 mm | - | 14 W/m² | - |
| 1778024085 | 25° C | 84% | 1015 hPa | 0 mm | - | 22 W/m² | - |
| 1778023782 | 25° C | 84% | 1014.7 hPa | 0 mm | - | 27 W/m² | - |
| 1778023480 | 25° C | 84% | 1014.8 hPa | 0 mm | - | 33 W/m² | - |
| 1778023177 | 25° C | 84% | 1014.8 hPa | 0 mm | - | 37 W/m² | - |
| 1778022874 | 25° C | 84% | 1014.9 hPa | 0 mm | - | 41 W/m² | - |
| 1778022572 | 25° C | 83% | 1014.8 hPa | 0 mm | - | 44 W/m² | - |
| 1778022270 | 25° C | 83% | 1014.7 hPa | 0 mm | - | 44 W/m² | - |
| 1778021966 | 25.56° C | 83% | 1015 hPa | 0 mm | - | 60 W/m² | - |
| 1778021663 | 25.56° C | 83% | 1014.8 hPa | 0 mm | - | 99 W/m² | - |
| 1778021358 | 25.56° C | 82% | 1014.8 hPa | 0 mm | - | 89 W/m² | - |
| 1778021056 | 25.56° C | 82% | 1014.5 hPa | 0 mm | - | 125 W/m² | - |
| 1778020753 | 25.56° C | 82% | 1014.6 hPa | 0 mm | - | 131 W/m² | - |
| 1778020450 | 25.56° C | 83% | 1015 hPa | 0 mm | - | 148 W/m² | - |
| 1778020146 | 25.56° C | 82% | 1015 hPa | 0 mm | - | 166 W/m² | - |
| 1778019842 | 25.56° C | 82% | 1014.7 hPa | 0 mm | - | 167 W/m² | - |
| 1778019539 | 25.56° C | 82% | 1014.9 hPa | 0 mm | - | 174 W/m² | - |
| 1778019236 | 25.56° C | 81% | 1014.7 hPa | 0 mm | - | 168 W/m² | - |
| 1778018933 | 25.56° C | 80% | 1014.6 hPa | 0 mm | - | 206 W/m² | - |
| 1778018630 | 25.56° C | 83% | 1014.3 hPa | 0 mm | - | 194 W/m² | - |
| 1778018328 | 25.56° C | 83% | 1014.6 hPa | 0 mm | - | 186 W/m² | - |
| 1778018026 | 25.56° C | 83% | 1014.3 hPa | 0 mm | - | 225 W/m² | - |
| 1778017723 | 25.56° C | 83% | 1014.3 hPa | 0 mm | - | 191 W/m² | - |
| 1778017421 | 26.11° C | 82% | 1014.3 hPa | 0 mm | - | 263 W/m² | - |
* Rain latest hour (hover to see other rain measurements)
** Current wind speed in m/s (hover to see current wind gust speed)